Location: Prague
(50.0830°N, 14.4670°E)
Time: 09:47:03
(UTC+01:00)

STARLINK-1617 - Pass Details

Date: 23 January 2021
Orbit: 545 x 549 km, 53.1° (Epoch: 25 February)

Event Time Altitude Azimuth Distance (km) Brightness Sun altitude
Exits shadow 07:13:32 - 282° (WNW) 2,100 5.9 -5.7°
Reaches altitude 10° 07:14:15 10° 284° (WNW) 1,820 5.6 -5.6°
Maximum altitude 07:18:20 56° 3° (N) 657 3.9 -5.0°
Drops below altitude 10° 07:22:24 10° 83° (E) 1,820 7.3 -4.4°
Sets 07:24:40 0° 87° (E) 2,713 8.4 -4.1°
